Weather Service Report


094 
ASUS41 KGYX 301310
RWRGYX
WEATHER ROUNDUP FOR MAINE AND NEW HAMPSHIRE
NATIONAL WEATHER SERVICE GRAY ME
900 AM EDT TUE AUG 30 2016

MEZ002-005-006-010-012-015-018-020-021-024-026-027-029-301400-
MAINE
  
CITY           SKY/WX    TMP DP  RH WIND       PRES   REMARKS
PORTLAND       CLOUDY    68  54  60 W5        30.15S                  
SANFORD        MOSUNNY   69  57  65 W3        30.16F                  
BAR HARBOR     CLOUDY    67  57  70 SW5       30.12S                  
WISCASSET      MOSUNNY   68  56  65 CALM      30.15S                  
ROCKLAND       PTSUNNY   68  58  70 W7        30.12S                  
FRYEBURG       MOSUNNY   61  56  83 CALM      30.17S                  
LEWISTONAUBURN MOSUNNY   65  57  75 CALM      30.15F                  
AUGUSTA        PTSUNNY   66  56  70 W3        30.14S                  
WATERVILLE     MOSUNNY   62  57  83 CALM      30.11S                  
BANGOR         CLOUDY    65  55  70 CALM      30.11F                  
GREENVILLE       N/A     63  52  67 CALM      30.12S                  
MILLINOCKET    MOSUNNY   69  55  60 NW5       30.10F                  
HOULTON        NOT AVBL                                               
PRESQUE ISLE   SUNNY     63  54  72 CALM      30.08S                  
FRENCHVILLE    PTSUNNY   60  52  74 SW6       30.06F                  
CARIBOU        MOSUNNY   62  55  77 CALM      30.06S                  
$$

NHZ002-005-008-009-011-012-014-301400-
NEW HAMPSHIRE
  
CITY           SKY/WX    TMP DP  RH WIND       PRES   REMARKS
PORTSMOUTH     PTSUNNY   68  56  66 W2        30.15S                  
ROCHESTER      SUNNY     67  55  65 NW6       30.16S                  
NASHUA         SUNNY     66  56  70 CALM      30.19S                  
MANCHESTER     PTSUNNY   68  54  60 CALM      30.17R                  
CONCORD        SUNNY     65  55  70 CALM      30.18F                  
LACONIA        PTSUNNY   63  57  81 W3        30.18F                  
PLYMOUTH       FAIR      54  53  97 CALM      30.19S                  
BERLIN         CLOUDY    55  53  93 CALM      30.19F                  
WHITEFIELD     PTSUNNY   56  53  90 CALM      30.21R                  
JAFFREY        SUNNY     64  54  69 CALM      30.20F                  
KEENE          MOSUNNY   59  54  83 CALM      30.20F                  
LEBANON        FOG       56  54  93 SE3       30.20S VSB 1/2          
MT WASHINGTON  FOG       43  43 100 W20         N/A  VSB 1/16         
$$

VTZ005-007-008-301400-
VERMONT
  
CITY           SKY/WX    TMP DP  RH WIND       PRES   REMARKS
ST JOHNSBURY     N/A     54  52  93 MISG      30.18F                  
MONTPELIER     FOG       53  53 100 CALM      30.23S VSB 1/4          
BURLINGTON     MOSUNNY   66  55  67 S5        30.17F                  
$$

MAZ007-012-024-CTZ003-RIZ002-NYZ038-NYZ072-301400-
SOUTHERN NEW ENGLAND AND NY
  
CITY           SKY/WX    TMP DP  RH WIND       PRES   REMARKS
BOSTON         MOSUNNY   71  56  58 NW6       30.17R                  
WORCESTER      SUNNY     67  51  56 NW3       30.20R                  
NANTUCKET      MOSUNNY   71  62  73 E5        30.15S                  
PROVIDENCE     MOSUNNY   72  55  55 VRB3      30.19R                  
HARTFORD       MOSUNNY   67  56  67 VRB3      30.20R                  
ALBANY         MOSUNNY   66  58  75 N3        30.19F                  
NEW YORK CITY  MOSUNNY   75  59  57 NE9       30.17R                  
$$

ANZ081-ANZ082-ANZ150-NHZ014-MEZ023>029-301400-
COASTAL MARINE OBSERVATIONS
  
STATION/POSITION TIME  TEMP    WIND        PRES    WAVE
                       AIR SEA DIR/SP/G            HT/PER
                 (UTC) (F)     (DEG/KT/KT) (MB)    (FT/S)
MOUNT DESERT ROC 1300   59     260/ 10/ 10 1019.9R
MATINICUS ROCK   1300   60     270/ 11/ 11 1019.9R
ISLE OF SHOALS   1300   62     270/  5/  6 1021.2R
JEFFREYS LEDGE   1208      66                N/A     3/12
CASHES LEDGE BUO 1250   65 67  260/  8/  8 1020.8R   3/12
GEORGES BANK BUO 1150   67 68              1019.0    3/11
$$

.............KEY..............
   WCI - WIND CHILL
   TC  - TEMPERATURE IN CELSIUS
   VSB - VISIBILITY IN MILES
   HX  - HEAT INDEX
   FAIR- INDICATES FEW OR NO CLOUDS BELOW 12,000 FT, WITH NO 
         SIGNIFICANT WEATHER AND/OR OBSTRUCTIONS TO VISIBILITY.


  

Return to Home page


Western Regional Climate Center, wrcc@dri.edu